Home > Weather > Monheim am Rhein > Past weeks

Flag for Germany Past Weather in Monheim am Rhein, North Rhine-Westphalia, Germany — Yesterday and Last 2 Weeks

Now
73 °F

Partly sunny.


Feels Like: 77 °F
Forecast: 60 / 74 °F
Wind: 5 mph from Northwest

Location: Duesseldorf

Current Time: Jul 26, 2016 at 12:35:54 PM

Latest Report: Jul 26, 2016 at 12:20 PM


Visibility: N/A

Pressure: 30.15 "Hg

Humidity: 57%

Dew Point: 57 °F

Location of Monheim am RheinLocation

Past Weather in Monheim am Rhein — Graph

°F

Monheim am Rhein Temperature Yesterday

Maximum temperature yesterday: 81 °F (at 4:50 PM)
Minimum temperature yesterday: 64 °F (at 2:20 AM)
Average temperature yesterday: 72 °F

High & Low Weather Summary for the Past Weeks

 TemperatureHumidityPressure
High95 °F (Jul 20, 4:20 PM)100% (Jul 13, 3:50 AM)30.30 "Hg (Jul 13, 3:50 AM)
Low46 °F (Jul 14, 4:20 AM)30% (Jul 20, 2:50 PM)29.83 "Hg (Jul 11, 3:50 PM)
Average69 °F72%30.07 "Hg
* Reported Jul 11 11:20 AM — Jul 26 11:20 AM, Monheim am Rhein, Weather by CustomWeather, © 2016

Note: Actual official high and low records may vary slightly from our data, if they occured in-between our weather recording intervals... More about our weather records

Advertising

Monheim am Rhein Weather History for the Previous 24 Hours

Scroll right to see more
 ConditionsComfort  
Time TempWeatherWind HumidityBarometerVisibility
11:20 AM
Tue, Jul 26
72 °FPartly sunny.3 mph65%30.15 "HgN/A
10:50 AM70 °FPartly sunny.5 mph69%30.15 "HgN/A
10:20 AM72 °FScattered clouds.3 mph69%30.15 "HgN/A
9:50 AM68 °FPartly sunny.2 mph78%30.15 "HgN/A
9:20 AM68 °FPartly sunny.5 mph78%30.15 "HgN/A
8:50 AM68 °FBroken clouds.2 mph78%30.15 "HgN/A
8:20 AM66 °FBroken clouds.3 mph83%30.15 "HgN/A
7:50 AM66 °FBroken clouds.3 mph83%30.12 "HgN/A
7:20 AM66 °FPartly sunny.2 mph88%30.12 "HgN/A
6:50 AM64 °FPartly sunny.3 mph88%30.12 "HgN/A
6:20 AM63 °FPartly cloudy.1 mph94%30.12 "HgN/A
5:50 AM63 °FPassing clouds.5 mph100%30.12 "HgN/A
5:20 AM61 °FFog.2 mph94%30.12 "HgN/A
4:50 AM63 °FFog.2 mph94%30.12 "HgN/A
4:20 AM63 °FPassing clouds.2 mph100%30.12 "HgN/A
3:50 AM64 °FPassing clouds.3 mph94%30.12 "HgN/A
3:20 AM64 °FPassing clouds.2 mph94%30.12 "HgN/A
2:50 AM66 °FPassing clouds.2 mph88%30.12 "HgN/A
2:20 AM66 °FPassing clouds.3 mph88%30.12 "HgN/A
1:50 AM66 °FPassing clouds.5 mph88%30.12 "HgN/A
1:20 AM66 °FPassing clouds.6 mph88%30.12 "HgN/A
12:50 AM68 °FPassing clouds.6 mph83%30.12 "HgN/A
12:20 AM68 °FPassing clouds.5 mph88%30.12 "HgN/A
11:50 PM
Mon, Jul 25
68 °FScattered showers. Passing clouds.3 mph88%30.09 "HgN/A
11:20 PM68 °FPassing clouds.5 mph88%30.12 "HgN/A
10:50 PM68 °FPassing clouds.3 mph88%30.09 "HgN/A
10:20 PM68 °FPassing clouds.2 mph88%30.09 "HgN/A
9:50 PM70 °FPassing clouds.3 mph83%30.09 "HgN/A
9:20 PM72 °FScattered clouds.5 mph78%30.09 "HgN/A
8:50 PM73 °FScattered clouds.3 mph74%30.09 "HgN/A
8:20 PM73 °FSprinkles. Scattered clouds.13 mph69%30.09 "HgN/A
7:50 PM77 °FPartly sunny.6 mph61%30.07 "HgN/A
7:20 PM77 °FPartly sunny.8 mph61%30.07 "HgN/A
6:50 PM77 °FPartly sunny.8 mph61%30.07 "HgN/A
6:20 PM79 °FPartly sunny.9 mph58%30.07 "HgN/A
5:50 PM79 °FPartly sunny.8 mph58%30.07 "HgN/A
5:20 PM79 °FScattered clouds.9 mph61%30.07 "HgN/A
4:50 PM81 °FScattered clouds.9 mph58%30.07 "HgN/A
4:20 PM79 °FPartly sunny.12 mph58%30.07 "HgN/A
3:50 PM79 °FPartly sunny.14 mph58%30.07 "HgN/A
3:20 PM79 °FPartly sunny.13 mph58%30.07 "HgN/A
2:50 PM79 °FPartly sunny.12 mph58%30.07 "HgN/A
2:20 PM79 °FScattered clouds.8 mph58%30.09 "HgN/A
1:50 PM79 °FScattered clouds.13 mph54%30.09 "HgN/A
1:20 PM79 °FScattered clouds.8 mph58%30.09 "HgN/A
12:50 PM77 °FScattered clouds.8 mph61%30.09 "HgN/A
12:20 PM77 °FScattered clouds.8 mph61%30.09 "HgN/A
Weather by CustomWeather, © 2016

See weather overviewHow to use our weather pages